Location: Bern/Schweiz
(46.9381°N, 7.4364°E)
Time: 22:43:47
(UTC+01:00)

ISS - Pass Details

Date: 02 October 2020
Orbit: 417 x 420 km, 51.6° (Epoch: 27 October)

Event Time Altitude Azimuth Distance (km) Brightness Sun altitude
Rises 20:17:50 0° 295° (WNW) 2,370 1.6 -12.9°
Maximum altitude 20:23:19 74° 23° (NNE) 440 -3.8 -13.8°
Enters shadow 20:24:55 28° 104° (ESE) 813 -2.9 -14.0°
